GIA617 WAAA-WIII

Flight info

Callsign GIA617
Flight time 1h 48m
Altitude 38000
Route NUNLU T6 KURUS
Aircraft B77W/H-SDE1E2E3FGHIJ2J3J4J5M1RWXY/LB1D1

Departure

Time 2026-04-21 17:12
Airport Sultan Hasanuddin International Airport (WAAA)

Arrival

Time 2026-04-21 19:00
Airport Soekarno-Hatta International Airport (WIII)
Time Latitude Longitude Altitude Speed Heading
2026-04-21 17:00 -5.07715 119.54775 46 ft 0 kts 301°
2026-04-21 17:05 -5.07716 119.54777 46 ft 2 kts 301°
2026-04-21 17:05 -5.07726 119.54800 46 ft 4 kts 279°
2026-04-21 17:05 -5.07726 119.54826 46 ft 4 kts 251°
2026-04-21 17:06 -5.07713 119.54847 43 ft 3 kts 212°
2026-04-21 17:06 -5.07711 119.54849 43 ft 0 kts 210°
2026-04-21 17:08 -5.07725 119.54840 44 ft 9 kts 210°
2026-04-21 17:08 -5.07791 119.54802 46 ft 12 kts 210°
2026-04-21 17:08 -5.07871 119.54756 46 ft 19 kts 210°
2026-04-21 17:08 -5.08008 119.54746 44 ft 23 kts 130°
2026-04-21 17:09 -5.08263 119.54756 46 ft 23 kts 208°
2026-04-21 17:09 -5.08401 119.54679 46 ft 23 kts 210°
2026-04-21 17:09 -5.08538 119.54600 46 ft 23 kts 210°
2026-04-21 17:10 -5.08673 119.54522 46 ft 23 kts 210°
2026-04-21 17:10 -5.08810 119.54443 46 ft 23 kts 210°
2026-04-21 17:10 -5.08947 119.54364 46 ft 23 kts 210°
2026-04-21 17:10 -5.09075 119.54291 46 ft 20 kts 210°
2026-04-21 17:11 -5.09191 119.54338 46 ft 20 kts 127°
2026-04-21 17:11 -5.09183 119.54427 47 ft 0 kts 34°
2026-04-21 17:11 -5.09130 119.54461 48 ft 38 kts 31°
2026-04-21 17:11 -5.08623 119.54754 47 ft 127 kts 30°
2026-04-21 17:12 -5.07645 119.55320 98 ft 190 kts 31°
2026-04-21 17:12 -5.06457 119.56038 711 ft 206 kts 32°
2026-04-21 17:12 -5.05132 119.56624 1461 ft 215 kts
2026-04-21 17:12 -5.03581 119.56411 1864 ft 241 kts 341°
2026-04-21 17:13 -5.01926 119.56002 2415 ft 250 kts 347°
2026-04-21 17:13 -5.00339 119.55223 3059 ft 263 kts 315°
2026-04-21 17:13 -4.99448 119.53611 3888 ft 273 kts 281°
2026-04-21 17:13 -4.99431 119.51710 4741 ft 276 kts 266°
2026-04-21 17:14 -4.99538 119.49755 5601 ft 283 kts 268°
2026-04-21 17:14 -4.99583 119.47771 6556 ft 286 kts 270°
2026-04-21 17:14 -4.99569 119.45757 7441 ft 291 kts 271°
2026-04-21 17:14 -4.99507 119.43712 8292 ft 296 kts 273°
2026-04-21 17:15 -4.99407 119.41630 9156 ft 301 kts 274°
2026-04-21 17:15 -4.99278 119.39515 9996 ft 307 kts 274°
2026-04-21 17:15 -4.99126 119.37331 10528 ft 325 kts 275°
2026-04-21 17:15 -4.98947 119.34965 10736 ft 355 kts 275°
2026-04-21 17:16 -4.98743 119.32420 11195 ft 374 kts 275°
2026-04-21 17:16 -4.98527 119.29787 11997 ft 383 kts 275°
2026-04-21 17:16 -4.98302 119.27107 12998 ft 388 kts 275°
2026-04-21 17:16 -4.98072 119.24397 13743 ft 393 kts 275°
2026-04-21 17:17 -4.97838 119.21645 13861 ft 399 kts 275°
2026-04-21 17:17 -4.97601 119.18874 13857 ft 398 kts 275°
2026-04-21 17:17 -4.97365 119.16117 13856 ft 395 kts 275°
2026-04-21 17:17 -4.97131 119.13377 13855 ft 394 kts 275°
2026-04-21 17:18 -4.96896 119.10642 13849 ft 394 kts 275°
2026-04-21 17:18 -4.96662 119.07904 13850 ft 394 kts 275°
2026-04-21 17:18 -4.96428 119.05174 13852 ft 394 kts 275°
2026-04-21 17:18 -4.96193 119.02435 13851 ft 394 kts 275°
2026-04-21 17:19 -4.95958 118.99699 13849 ft 394 kts 275°
2026-04-21 17:19 -4.95723 118.96959 13849 ft 394 kts 275°
2026-04-21 17:19 -4.95488 118.94219 13853 ft 395 kts 275°
2026-04-21 17:19 -4.95255 118.91513 13852 ft 395 kts 275°
2026-04-21 17:20 -4.95020 118.88771 13852 ft 395 kts 275°
2026-04-21 17:20 -4.94784 118.86025 13852 ft 395 kts 275°
2026-04-21 17:20 -4.94548 118.83281 13853 ft 395 kts 275°
2026-04-21 17:20 -4.94311 118.80532 13853 ft 395 kts 275°
2026-04-21 17:21 -4.94075 118.77787 13854 ft 395 kts 275°
2026-04-21 17:21 -4.93999 118.75031 13849 ft 396 kts 268°
2026-04-21 17:21 -4.94252 118.72279 14060 ft 400 kts 261°
2026-04-21 17:21 -4.94813 118.69534 14912 ft 403 kts 257°
2026-04-21 17:22 -4.95230 118.67722 15556 ft 404 kts 257°
2026-04-21 17:22 -4.96084 118.64035 16802 ft 408 kts 257°
2026-04-21 17:22 -4.96511 118.62190 17372 ft 412 kts 257°
2026-04-21 17:22 -4.97160 118.59369 18186 ft 418 kts 257°
2026-04-21 17:23 -4.97815 118.56509 18884 ft 424 kts 257°
2026-04-21 17:23 -4.98475 118.53611 19624 ft 428 kts 257°
2026-04-21 17:23 -4.99138 118.50692 20380 ft 432 kts 257°
2026-04-21 17:23 -4.99807 118.47739 21091 ft 436 kts 257°
2026-04-21 17:24 -5.00483 118.44753 21787 ft 441 kts 257°
2026-04-21 17:24 -5.01165 118.41740 22518 ft 445 kts 257°
2026-04-21 17:24 -5.01852 118.38701 23236 ft 449 kts 257°
2026-04-21 17:24 -5.02547 118.35632 23802 ft 454 kts 257°
2026-04-21 17:25 -5.03248 118.32529 24370 ft 458 kts 257°
2026-04-21 17:25 -5.03954 118.29407 24953 ft 461 kts 257°
2026-04-21 17:25 -5.04666 118.26256 25479 ft 466 kts 258°
2026-04-21 17:25 -5.05386 118.23072 26016 ft 470 kts 257°
2026-04-21 17:26 -5.06109 118.19869 26642 ft 472 kts 257°
2026-04-21 17:26 -5.06836 118.16653 27194 ft 475 kts 258°
2026-04-21 17:26 -5.07570 118.13401 27727 ft 480 kts 258°
2026-04-21 17:26 -5.08309 118.10129 28285 ft 483 kts 258°
2026-04-21 17:27 -5.09054 118.06830 28771 ft 488 kts 258°
2026-04-21 17:27 -5.09806 118.03498 29272 ft 491 kts 257°
2026-04-21 17:27 -5.10561 118.00150 29842 ft 493 kts 257°
2026-04-21 17:27 -5.11320 117.96787 30271 ft 497 kts 257°
2026-04-21 17:28 -5.12084 117.93397 30715 ft 499 kts 257°
2026-04-21 17:28 -5.12850 117.89998 31140 ft 501 kts 257°
2026-04-21 17:28 -5.13578 117.86569 31515 ft 504 kts 260°
2026-04-21 17:28 -5.14020 117.83083 31919 ft 504 kts 266°
2026-04-21 17:29 -5.14251 117.79580 32467 ft 502 kts 267°
2026-04-21 17:29 -5.14459 117.76093 32990 ft 501 kts 267°
2026-04-21 17:29 -5.14666 117.72611 33524 ft 499 kts 267°
2026-04-21 17:29 -5.14881 117.69151 34085 ft 496 kts 267°
2026-04-21 17:30 -5.15105 117.65713 34602 ft 493 kts 267°
2026-04-21 17:30 -5.15336 117.62294 35112 ft 490 kts 267°
2026-04-21 17:30 -5.15568 117.58896 35645 ft 486 kts 266°
2026-04-21 17:30 -5.15800 117.55526 36175 ft 483 kts 266°
2026-04-21 17:31 -5.16031 117.52179 36667 ft 480 kts 267°
2026-04-21 17:31 -5.16259 117.48853 37145 ft 477 kts 267°
2026-04-21 17:31 -5.16486 117.45538 37553 ft 476 kts 266°
2026-04-21 17:31 -5.16712 117.42225 37894 ft 476 kts 266°
2026-04-21 17:32 -5.17166 117.35553 37851 ft 480 kts 266°
2026-04-21 17:32 -5.17618 117.28917 37844 ft 473 kts 266°
2026-04-21 17:33 -5.18063 117.22350 37848 ft 471 kts 266°
2026-04-21 17:33 -5.18507 117.15809 37852 ft 470 kts 266°
2026-04-21 17:34 -5.18950 117.09262 37850 ft 471 kts 266°
2026-04-21 17:34 -5.19394 117.02694 37849 ft 473 kts 266°
2026-04-21 17:35 -5.20047 116.96111 37856 ft 475 kts 263°
2026-04-21 17:35 -5.20884 116.89568 37854 ft 477 kts 263°
2026-04-21 17:36 -5.21720 116.82952 37854 ft 478 kts 263°
2026-04-21 17:36 -5.22519 116.76326 37855 ft 479 kts 263°
2026-04-21 17:37 -5.23303 116.69691 37852 ft 479 kts 263°
2026-04-21 17:37 -5.24084 116.63057 37850 ft 478 kts 263°
2026-04-21 17:38 -5.24865 116.56434 37850 ft 478 kts 263°
2026-04-21 17:38 -5.25645 116.49815 37846 ft 477 kts 264°
2026-04-21 17:39 -5.26424 116.43202 37849 ft 477 kts 263°
2026-04-21 17:39 -5.27202 116.36586 37850 ft 477 kts 263°
2026-04-21 17:40 -5.27980 116.29974 37847 ft 478 kts 263°
2026-04-21 17:40 -5.28758 116.23352 37844 ft 478 kts 264°
2026-04-21 17:41 -5.29536 116.16725 37851 ft 479 kts 264°
2026-04-21 17:41 -5.30314 116.10082 37855 ft 480 kts 264°
2026-04-21 17:42 -5.31094 116.03426 37853 ft 481 kts 264°
2026-04-21 17:42 -5.31874 115.96764 37853 ft 481 kts 264°
2026-04-21 17:43 -5.32654 115.90091 37847 ft 482 kts 264°
2026-04-21 17:43 -5.33429 115.83455 37856 ft 482 kts 264°
2026-04-21 17:44 -5.34209 115.76769 37856 ft 483 kts 264°
2026-04-21 17:44 -5.34989 115.70081 37848 ft 483 kts 264°
2026-04-21 17:45 -5.35769 115.63391 37851 ft 483 kts 264°
2026-04-21 17:45 -5.36548 115.56697 37850 ft 483 kts 264°
2026-04-21 17:46 -5.37326 115.50001 37849 ft 483 kts 264°
2026-04-21 17:46 -5.38104 115.43304 37852 ft 483 kts 264°
2026-04-21 17:47 -5.38881 115.36604 37849 ft 483 kts 264°
2026-04-21 17:47 -5.39658 115.29906 37846 ft 483 kts 264°
2026-04-21 17:48 -5.40433 115.23207 37850 ft 483 kts 264°
2026-04-21 17:48 -5.41209 115.16505 37848 ft 484 kts 264°
2026-04-21 17:49 -5.41984 115.09800 37848 ft 484 kts 264°
2026-04-21 17:49 -5.42758 115.03095 37848 ft 484 kts 264°
2026-04-21 17:50 -5.43532 114.96389 37841 ft 484 kts 264°
2026-04-21 17:50 -5.44306 114.89672 37843 ft 485 kts 264°
2026-04-21 17:51 -5.45079 114.82954 37844 ft 485 kts 264°
2026-04-21 17:51 -5.45853 114.76223 37845 ft 485 kts 264°
2026-04-21 17:52 -5.46627 114.69492 37841 ft 486 kts 264°
2026-04-21 17:52 -5.47400 114.62760 37838 ft 485 kts 264°
2026-04-21 17:53 -5.48171 114.56030 37844 ft 485 kts 264°
2026-04-21 17:53 -5.48942 114.49304 37838 ft 485 kts 264°
2026-04-21 17:54 -5.49712 114.42573 37851 ft 485 kts 264°
2026-04-21 17:54 -5.50476 114.35897 37840 ft 485 kts 264°
2026-04-21 17:55 -5.51244 114.29172 37846 ft 485 kts 264°
2026-04-21 17:55 -5.52011 114.22441 37845 ft 485 kts 264°
2026-04-21 17:56 -5.52779 114.15708 37842 ft 486 kts 264°
2026-04-21 17:56 -5.53546 114.08970 37850 ft 486 kts 264°
2026-04-21 17:57 -5.54313 114.02231 37838 ft 486 kts 264°
2026-04-21 17:57 -5.55091 113.95491 37849 ft 487 kts 264°
2026-04-21 17:58 -5.55903 113.88741 37849 ft 487 kts 263°
2026-04-21 17:58 -5.56717 113.81992 37841 ft 487 kts 264°
2026-04-21 17:59 -5.57521 113.75281 37845 ft 487 kts 264°
2026-04-21 17:59 -5.58327 113.68527 37844 ft 487 kts 263°
2026-04-21 18:00 -5.59132 113.61774 37848 ft 487 kts 263°
2026-04-21 18:00 -5.59937 113.55015 37848 ft 487 kts 263°
2026-04-21 18:01 -5.60741 113.48258 37845 ft 488 kts 263°
2026-04-21 18:01 -5.61543 113.41506 37845 ft 487 kts 263°
2026-04-21 18:02 -5.62345 113.34753 37840 ft 487 kts 263°
2026-04-21 18:02 -5.63146 113.27999 37845 ft 487 kts 263°
2026-04-21 18:03 -5.63947 113.21242 37849 ft 487 kts 263°
2026-04-21 18:03 -5.64747 113.14483 37844 ft 487 kts 263°
2026-04-21 18:04 -5.65545 113.07733 37843 ft 487 kts 263°
2026-04-21 18:04 -5.66343 113.00972 37841 ft 487 kts 263°
2026-04-21 18:05 -5.67141 112.94213 37844 ft 488 kts 263°
2026-04-21 18:05 -5.67939 112.87450 37850 ft 488 kts 263°
2026-04-21 18:06 -5.68735 112.80685 37848 ft 488 kts 263°
2026-04-21 18:06 -5.69531 112.73923 37844 ft 488 kts 263°
2026-04-21 18:07 -5.70327 112.67153 37848 ft 488 kts 263°
2026-04-21 18:07 -5.71122 112.60375 37847 ft 489 kts 263°
2026-04-21 18:08 -5.71783 112.54744 37849 ft 489 kts 263°
2026-04-21 18:08 -5.72577 112.47965 37848 ft 489 kts 263°
2026-04-21 18:09 -5.73371 112.41184 37846 ft 489 kts 263°
2026-04-21 18:09 -5.74292 112.33308 37846 ft 489 kts 263°
2026-04-21 18:10 -5.74955 112.27631 37844 ft 488 kts 263°
2026-04-21 18:10 -5.75746 112.20858 37848 ft 488 kts 263°
2026-04-21 18:11 -5.76535 112.14086 37852 ft 488 kts 263°
2026-04-21 18:11 -5.77318 112.07364 37849 ft 487 kts 264°
2026-04-21 18:12 -5.78104 112.00611 37846 ft 487 kts 264°
2026-04-21 18:12 -5.78888 111.93868 37849 ft 486 kts 264°
2026-04-21 18:13 -5.79670 111.87135 37848 ft 485 kts 264°
2026-04-21 18:13 -5.80450 111.80406 37852 ft 485 kts 264°
2026-04-21 18:14 -5.81618 111.70324 37851 ft 484 kts 264°
2026-04-21 18:15 -5.82394 111.63613 37854 ft 484 kts 264°
2026-04-21 18:15 -5.83170 111.56901 37854 ft 483 kts 264°
2026-04-21 18:16 -5.83943 111.50198 37850 ft 483 kts 264°
2026-04-21 18:16 -5.84717 111.43490 37852 ft 483 kts 264°
2026-04-21 18:17 -5.85490 111.36780 37853 ft 484 kts 264°
2026-04-21 18:17 -5.86262 111.30070 37853 ft 484 kts 264°
2026-04-21 18:18 -5.87033 111.23357 37854 ft 484 kts 264°
2026-04-21 18:18 -5.87791 111.16680 37854 ft 484 kts 264°
2026-04-21 18:19 -5.88546 111.09915 37856 ft 484 kts 264°
2026-04-21 18:19 -5.89288 111.03243 37852 ft 484 kts 264°
2026-04-21 18:20 -5.90036 110.96537 37855 ft 483 kts 264°
2026-04-21 18:20 -5.90782 110.89843 37853 ft 482 kts 264°
2026-04-21 18:21 -5.91527 110.83154 37856 ft 482 kts 264°
2026-04-21 18:21 -5.92270 110.76476 37858 ft 481 kts 264°
2026-04-21 18:22 -5.93012 110.69799 37849 ft 481 kts 264°
2026-04-21 18:22 -5.93752 110.63130 37858 ft 480 kts 264°
2026-04-21 18:23 -5.94492 110.56456 37855 ft 480 kts 264°
2026-04-21 18:23 -5.95230 110.49789 37856 ft 481 kts 264°
2026-04-21 18:24 -5.95968 110.43117 37860 ft 481 kts 264°
2026-04-21 18:24 -5.96569 110.36432 37855 ft 480 kts 270°
2026-04-21 18:25 -5.96575 110.29727 37859 ft 480 kts 271°
2026-04-21 18:25 -5.96525 110.23020 37855 ft 481 kts 271°
2026-04-21 18:26 -5.96498 110.16300 37865 ft 481 kts 271°
2026-04-21 18:26 -5.96493 110.09581 37855 ft 481 kts 271°
2026-04-21 18:27 -5.96492 110.02905 37858 ft 481 kts 271°
2026-04-21 18:27 -5.96489 109.96186 37857 ft 481 kts 271°
2026-04-21 18:28 -5.96485 109.89466 37861 ft 481 kts 271°
2026-04-21 18:28 -5.96480 109.82750 37856 ft 481 kts 271°
2026-04-21 18:29 -5.96474 109.76040 37864 ft 480 kts 271°
2026-04-21 18:29 -5.96467 109.69327 37856 ft 480 kts 271°
2026-04-21 18:30 -5.96459 109.62624 37861 ft 480 kts 271°
2026-04-21 18:30 -5.96450 109.55921 37857 ft 480 kts 271°
2026-04-21 18:31 -5.96441 109.49229 37858 ft 479 kts 271°
2026-04-21 18:31 -5.96431 109.42532 37861 ft 479 kts 271°
2026-04-21 18:32 -5.96420 109.35846 37857 ft 478 kts 271°
2026-04-21 18:32 -5.96408 109.29169 37857 ft 478 kts 271°
2026-04-21 18:33 -5.96395 109.22501 37854 ft 477 kts 271°
2026-04-21 18:33 -5.96382 109.15836 37859 ft 477 kts 271°
2026-04-21 18:34 -5.96368 109.09184 37860 ft 477 kts 272°
2026-04-21 18:34 -5.96353 109.02518 37860 ft 477 kts 272°
2026-04-21 18:35 -5.96340 108.96974 37862 ft 478 kts 272°
2026-04-21 18:35 -5.96320 108.89174 37859 ft 478 kts 272°
2026-04-21 18:36 -5.96302 108.82452 37085 ft 489 kts 271°
2026-04-21 18:36 -5.96292 108.79042 36433 ft 487 kts 271°
2026-04-21 18:36 -5.96283 108.75641 35715 ft 487 kts 271°
2026-04-21 18:36 -5.96274 108.72242 34916 ft 488 kts 271°
2026-04-21 18:37 -5.96265 108.68832 34278 ft 487 kts 271°
2026-04-21 18:37 -5.96255 108.65442 33679 ft 484 kts 271°
2026-04-21 18:37 -5.96245 108.62077 33078 ft 480 kts 271°
2026-04-21 18:37 -5.96235 108.58738 32508 ft 476 kts 271°
2026-04-21 18:38 -5.96225 108.55421 31962 ft 472 kts 271°
2026-04-21 18:38 -5.96214 108.52135 31425 ft 469 kts 271°
2026-04-21 18:38 -5.96204 108.48875 30896 ft 465 kts 271°
2026-04-21 18:38 -5.96195 108.45637 30358 ft 462 kts 271°
2026-04-21 18:39 -5.96193 108.42415 29806 ft 460 kts 271°
2026-04-21 18:39 -5.96193 108.39211 29199 ft 457 kts 271°
2026-04-21 18:39 -5.96194 108.36036 28640 ft 453 kts 270°
2026-04-21 18:39 -5.96194 108.32888 28102 ft 449 kts 270°
2026-04-21 18:40 -5.96193 108.29759 27572 ft 446 kts 270°
2026-04-21 18:40 -5.96191 108.26659 27045 ft 442 kts 270°
2026-04-21 18:40 -5.96190 108.24619 26711 ft 440 kts 270°
2026-04-21 18:40 -5.96187 108.20526 26030 ft 436 kts 270°
2026-04-21 18:41 -5.96185 108.17486 25520 ft 434 kts 270°
2026-04-21 18:41 -5.96182 108.14459 25003 ft 432 kts 270°
2026-04-21 18:41 -5.96179 108.11446 24483 ft 431 kts 270°
2026-04-21 18:41 -5.96176 108.08444 23991 ft 429 kts 270°
2026-04-21 18:42 -5.96174 108.05454 23483 ft 428 kts 270°
2026-04-21 18:42 -5.96171 108.02481 23107 ft 421 kts 270°
2026-04-21 18:42 -5.96168 107.99618 22914 ft 410 kts 270°
2026-04-21 18:42 -5.96165 107.96779 22494 ft 406 kts 270°
2026-04-21 18:43 -5.96166 107.93950 21997 ft 404 kts 270°
2026-04-21 18:43 -5.96167 107.91129 21551 ft 402 kts 270°
2026-04-21 18:43 -5.96168 107.88329 21086 ft 400 kts 270°
2026-04-21 18:43 -5.96168 107.85544 20613 ft 399 kts 270°
2026-04-21 18:44 -5.96169 107.82769 20148 ft 397 kts 270°
2026-04-21 18:44 -5.96169 107.80009 19808 ft 392 kts 269°
2026-04-21 18:44 -5.96169 107.77299 19536 ft 385 kts 269°
2026-04-21 18:44 -5.96168 107.74608 19025 ft 385 kts 269°
2026-04-21 18:45 -5.96168 107.71930 18703 ft 380 kts 269°
2026-04-21 18:45 -5.96168 107.69301 18477 ft 372 kts 269°
2026-04-21 18:45 -5.96167 107.66737 18334 ft 362 kts 269°
2026-04-21 18:45 -5.96166 107.64236 18183 ft 353 kts 269°
2026-04-21 18:46 -5.96166 107.61802 17976 ft 345 kts 269°
2026-04-21 18:46 -5.96167 107.59405 17645 ft 342 kts 269°
2026-04-21 18:46 -5.96168 107.57024 17248 ft 341 kts 269°
2026-04-21 18:46 -5.96168 107.54644 16858 ft 340 kts 269°
2026-04-21 18:47 -5.96169 107.52282 16495 ft 338 kts 270°
2026-04-21 18:47 -5.96169 107.49933 16148 ft 335 kts 270°
2026-04-21 18:47 -5.96169 107.47596 15805 ft 333 kts 270°
2026-04-21 18:47 -5.96169 107.45276 15463 ft 331 kts 270°
2026-04-21 18:48 -5.96169 107.42967 15119 ft 330 kts 270°
2026-04-21 18:48 -5.96169 107.40671 14786 ft 328 kts 270°
2026-04-21 18:48 -5.96168 107.38390 14454 ft 326 kts 270°
2026-04-21 18:48 -5.96168 107.36122 14193 ft 322 kts 270°
2026-04-21 18:49 -5.96167 107.33901 14066 ft 313 kts 270°
2026-04-21 18:49 -5.96167 107.31749 13940 ft 303 kts 270°
2026-04-21 18:49 -5.96166 107.30374 13684 ft 294 kts 270°
2026-04-21 18:49 -5.96163 107.27655 12728 ft 290 kts 270°
2026-04-21 18:50 -5.96160 107.25638 11988 ft 288 kts 270°
2026-04-21 18:50 -5.96158 107.23642 11306 ft 284 kts 270°
2026-04-21 18:50 -5.96155 107.21669 10660 ft 281 kts 270°
2026-04-21 18:50 -5.96152 107.19719 10024 ft 277 kts 270°
2026-04-21 18:51 -5.96150 107.17796 9357 ft 274 kts 270°
2026-04-21 18:51 -5.96147 107.15895 8688 ft 271 kts 270°
2026-04-21 18:51 -5.96145 107.14013 8013 ft 268 kts 270°
2026-04-21 18:51 -5.96142 107.12167 7505 ft 259 kts 270°
2026-04-21 18:52 -5.96155 107.10388 7051 ft 249 kts 265°
2026-04-21 18:52 -5.96552 107.08753 6733 ft 234 kts 249°
2026-04-21 18:52 -5.97149 107.07257 6473 ft 231 kts 247°
2026-04-21 18:52 -5.97779 107.05740 6226 ft 239 kts 247°
2026-04-21 18:53 -5.98410 107.04202 5931 ft 235 kts 248°
2026-04-21 18:53 -5.99013 107.02708 5642 ft 229 kts 248°
2026-04-21 18:53 -5.99610 107.01212 5390 ft 234 kts 249°
2026-04-21 18:53 -6.00221 106.99664 5130 ft 242 kts 249°
2026-04-21 18:54 -6.00840 106.98084 4849 ft 243 kts 249°
2026-04-21 18:54 -6.01457 106.96505 4585 ft 242 kts 249°
2026-04-21 18:54 -6.02068 106.94940 4333 ft 240 kts 249°
2026-04-21 18:54 -6.02471 106.93909 4166 ft 238 kts 249°
2026-04-21 18:55 -6.03072 106.92388 4055 ft 229 kts 249°
2026-04-21 18:55 -6.03646 106.90941 3989 ft 217 kts 249°
2026-04-21 18:55 -6.04357 106.89146 3971 ft 206 kts 249°
2026-04-21 18:55 -6.04894 106.87798 3832 ft 208 kts 249°
2026-04-21 18:56 -6.05434 106.86444 3595 ft 209 kts 249°
2026-04-21 18:56 -6.05969 106.85107 3409 ft 204 kts 249°
2026-04-21 18:56 -6.06323 106.84221 3288 ft 199 kts 249°
2026-04-21 18:56 -6.06829 106.82953 3114 ft 192 kts 249°
2026-04-21 18:57 -6.07316 106.81735 2919 ft 186 kts 249°
2026-04-21 18:57 -6.07795 106.80535 2687 ft 185 kts 249°
2026-04-21 18:57 -6.08279 106.79324 2467 ft 188 kts 249°
2026-04-21 18:57 -6.08765 106.78107 2233 ft 188 kts 249°
2026-04-21 18:58 -6.09243 106.76909 1980 ft 186 kts 249°
2026-04-21 18:58 -6.09729 106.75694 1733 ft 184 kts 249°
2026-04-21 18:58 -6.10194 106.74529 1495 ft 179 kts 249°
2026-04-21 18:58 -6.10643 106.73405 1292 ft 165 kts 248°
2026-04-21 18:59 -6.11068 106.72341 1071 ft 164 kts 248°
2026-04-21 18:59 -6.11476 106.71319 894 ft 151 kts 248°
2026-04-21 18:59 -6.11855 106.70370 679 ft 143 kts 248°
2026-04-21 18:59 -6.12223 106.69449 516 ft 143 kts 247°
2026-04-21 19:00 -6.12594 106.68517 322 ft 144 kts 248°
2026-04-21 19:00 -6.12968 106.67585 126 ft 144 kts 247°
2026-04-21 19:00 -6.13330 106.66678 48 ft 131 kts 248°
2026-04-21 19:00 -6.13573 106.66071 44 ft 49 kts 248°
2026-04-21 19:01 -6.13624 106.65882 44 ft 24 kts 268°
2026-04-21 19:01 -6.13606 106.65738 43 ft 17 kts 287°
2026-04-21 19:01 -6.13516 106.65663 43 ft 17 kts 340°
2026-04-21 19:01 -6.13423 106.65718 43 ft 18 kts 65°
2026-04-21 19:02 -6.13364 106.65814 43 ft 16 kts 32°
2026-04-21 19:02 -6.13269 106.65789 43 ft 15 kts 295°
2026-04-21 19:02 -6.13264 106.65772 43 ft 1 kts 284°